Location: *
(12.6286°N, 12.8167°W)
Time: 20:31:40
(UTC+00:00)

Daily predictions for brighter satellites

Satellite Brightness Start Highest point End
(mag) Time Altitude Azimuth Time Altitude Azimuth Time Altitude Azimuth
BREEZE M DEB (TANK) 4.4 18:30:56 10° NNW 18:35:26 46° ENE 18:52:08 10° SE
Meteor 2-20 Rocket 4.4 18:32:48 10° S 18:38:51 74° E 18:44:55 10° N
Skynet4D Del rocket 3.9 18:33:07 10° NW 18:38:57 54° NNE 18:44:15 10° E
Cosmos 1825 3.8 18:39:47 10° NNW 18:43:19 40° W 18:46:52 10° SSW
Ariane H10 3.8 18:34:54 10° WSW 18:46:41 46° S 18:50:18 10° ESE
CZ-3C R/B 2.3 18:44:18 10° WNW 18:49:10 26° N 18:52:00 10° NE
EO 1 Delta rocket 4.2 18:52:56 10° S 18:57:51 89° W 19:03:52 10° N
GPS 2-14 Rocket1 4.1 18:55:04 10° W 18:58:33 34° SSW 19:02:05 10° SE
Cosmos 2219 3.9 18:56:03 10° N 19:00:55 30° ENE 19:05:47 10° SE
Cosmos 1238 Rocket 3.2 18:57:28 10° NNW 19:01:00 55° W 19:04:04 10° S
Cosmos 1980 Rocket 2.3 18:57:37 10° S 19:03:07 59° ESE 19:08:40 10° NNE
GPS 2-04 Rocket1 4.5 19:02:16 10° WNW 19:04:45 19° NNW 19:07:14 10° NNE
YAOGAN 6 3.1 19:01:37 10° SE 19:04:49 33° ENE 19:08:01 10° NNE
Hubble Space Telescope 1.4 19:01:08 10° SW 19:05:02 42° SSE 19:07:59 16° E
Cosmos 1328 Rocket 3.7 19:01:32 10° S 19:05:52 55° E 19:10:12 10° NNE
Cosmos 1633 3.7 19:03:07 10° NNE 19:06:03 23° E 19:08:58 10° SE
Cosmos 1633 Rocket 4.3 19:03:57 10° NE 19:07:16 21° E 19:10:35 10° SE
H-2A R/B 4.5 19:05:51 10° SSW 19:09:27 37° W 19:13:04 10° NNW
COSMO-SKYMED 1 4.2 19:08:13 10° N 19:12:10 35° WNW 19:16:07 10° SW
Cosmos 1818 4.2 19:07:51 10° NNW 19:13:10 61° WSW 19:18:27 10° S
CZ-3C R/B 1.5 19:12:09 10° SW 19:14:24 56° SSE 19:18:11 18° E
Cosmos 1151 Rocket 2.9 19:10:32 10° S 19:14:48 66° E 19:19:05 10° NNE
Envisat 2.9 19:11:16 10° SSE 19:16:20 86° ENE 19:21:25 10° N
Cosmos 1666 Rocket 4.0 19:12:57 10° NNE 19:16:55 35° E 19:20:52 10° SSE
BREEZE-M R/B 4.1 19:07:33 10° SW 19:16:58 73° NW 19:20:49 14° NNE
DELTA 2 R/B (1) 3.7 19:13:12 10° SW 19:18:48 76° NW 19:23:03 18° NE
SL-8 R/B 4.0 19:18:15 10° SW 19:23:01 64° NW 19:26:45 16° NNE
Sich 1 2.9 19:18:45 10° N 19:23:05 69° E 19:27:27 10° S
Cosmos 2227 Rocket 3.0 19:18:35 10° NNE 19:23:19 27° ENE 19:28:02 10° SE
Cosmos 2297 Rocket 2.8 19:18:52 10° N 19:23:47 31° ENE 19:28:42 10° SE
YAOGAN 1 2.9 19:20:09 10° SSE 19:24:13 42° ENE 19:28:17 10° N
IUS-18 SRM-1 4.4 19:24:49 10° NNW 19:25:57 11° NNW 19:26:53 10° N
Okean-O 4.0 19:24:08 10° S 19:28:17 41° W 19:32:28 10° NNW
SL-24 R/B 4.2 19:29:09 17° NNE 19:32:24 57° ESE 19:37:08 10° S
GPS 2-17 Rocket1 2.9 19:32:12 10° WNW 19:36:40 78° NNE 19:38:20 38° E
SeaSat 1 2.4 19:31:50 10° SSE 19:36:46 90° NE 19:41:41 10° NNW
Cosmos 1862 3.3 19:32:53 10° N 19:36:47 57° E 19:40:43 10° SSE
BREEZE-M DEB (TANK) 4.2 19:38:26 10° SSW 19:42:11 63° ESE 19:50:39 20° NE
Cosmos 2034 Rocket 3.9 19:41:11 10° N 19:47:30 68° E 19:53:49 10° SSE
Tsikada Rocket 4.2 19:41:55 10° S 19:48:09 75° W 19:54:30 10° N
Aurora 2 Rocket 3.0 19:51:18 10° WSW 19:55:54 72° NNW 19:57:24 49° NE
Cosmos 2228 Rocket 3.0 19:54:33 10° S 19:58:57 87° W 19:59:51 57° N
CZ-4 R/B 3.0 19:57:41 10° SSW 20:01:35 36° W 20:05:26 10° NNW
Meteor 2-11 Rocket 4.3 19:57:43 10° N 20:03:52 90° NNE 20:10:01 10° S
ATLAS 5 CENTAUR R/B 3.4 20:03:40 10° N 20:07:35 34° NNE 20:07:35 34° NNE
NOAA 11 4.1 20:07:23 10° S 20:12:48 84° WSW 20:18:13 10° NNW
GPS 2-15 Rocket1 4.4 20:09:18 10° WNW 20:12:53 32° NNW 20:12:53 32° NNW
ATLAS 2AS CENTAUR R/B 4.3 20:10:22 10° SSE 20:13:15 20° SE 20:13:15 20° SE
Cosmos 1606 4.4 20:16:57 10° SSW 20:20:18 31° W 20:20:18 31° W
Skynet4D Del rocket 4.5 20:26:14 10° W 20:31:23 40° SSW 20:31:33 40° SSW
ADEOS Rocket 3.2 20:35:16 58° NW 20:35:41 59° WNW 20:41:09 10° SSW
ARIANE 42L R/B 4.5 20:24:08 10° WSW 20:36:04 35° SSW 20:36:33 34° S
SL-16 R/B 2.7 20:32:01 10° SSW 20:36:43 56° WSW 20:36:43 56° WSW
Hubble Space Telescope 3.6 20:42:25 10° W 20:43:20 15° W 20:43:20 15° W
Cosmos 2322 Rocket 3.4 20:43:42 10° SSW 20:47:12 37° SW 20:47:12 37° SW
Cosmos 2227 Rocket 4.4 21:02:52 10° NW 21:07:04 22° WSW 21:11:15 10° SSW
